Time,TemperatureF,DewpointF,PressureIn,WindDirection,WindDirectionDegrees,WindSpeedMPH,WindSpeedGustMPH,Humidity,HourlyPrecipIn,Conditions,Clouds,dailyrainin,SoftwareType,DateUTC
2013-02-14 00:01:00,37.0,23.0,30.15,NW,316,0.0,0.0,56,0.00,,,0.00,,2013-02-14 08:01:00,
2013-02-14 00:11:00,37.0,23.0,30.15,NW,316,0.0,0.0,56,0.00,,,0.00,,2013-02-14 08:11:00,
2013-02-14 00:21:00,37.0,23.0,30.15,NW,309,5.0,5.0,57,0.00,,,0.00,,2013-02-14 08:21:00,
2013-02-14 00:31:00,37.0,23.0,30.15,NW,319,5.0,5.0,57,0.00,,,0.00,,2013-02-14 08:31:00,
2013-02-14 00:43:00,37.0,23.0,30.15,NW,319,5.0,5.0,57,0.00,,,0.00,,2013-02-14 08:43:00,
2013-02-14 00:52:00,37.0,24.0,30.15,NW,311,5.0,5.0,59,0.00,,,0.00,,2013-02-14 08:52:00,
2013-02-14 01:01:00,37.0,24.0,30.15,NW,308,5.0,5.0,58,0.00,,,0.00,,2013-02-14 09:01:00,
2013-02-14 01:11:00,37.0,24.0,30.15,NW,309,4.0,4.0,58,0.00,,,0.00,,2013-02-14 09:11:00,
2013-02-14 01:21:00,37.0,24.0,30.15,NW,309,4.0,4.0,58,0.00,,,0.00,,2013-02-14 09:21:00,
2013-02-14 01:31:00,37.0,23.0,30.15,WNW,302,0.0,0.0,57,0.00,,,0.00,,2013-02-14 09:31:00,
2013-02-14 01:41:00,37.0,23.0,30.15,WNW,302,0.0,0.0,57,0.00,,,0.00,,2013-02-14 09:41:00,
2013-02-14 01:52:00,37.0,23.0,30.14,WNW,302,0.0,0.0,57,0.00,,,0.00,,2013-02-14 09:52:00,
2013-02-14 02:01:00,37.0,23.0,30.14,WNW,302,0.0,0.0,57,0.00,,,0.00,,2013-02-14 10:01:00,
2013-02-14 02:11:00,37.0,24.0,30.14,WNW,302,0.0,0.0,59,0.00,,,0.00,,2013-02-14 10:11:00,
2013-02-14 02:21:00,37.0,24.0,30.14,WNW,302,0.0,0.0,59,0.00,,,0.00,,2013-02-14 10:21:00,
2013-02-14 02:31:00,36.0,23.0,30.13,WNW,302,0.0,0.0,59,0.00,,,0.00,,2013-02-14 10:31:00,
2013-02-14 02:41:00,36.0,23.0,30.13,WNW,302,0.0,0.0,59,0.00,,,0.00,,2013-02-14 10:41:00,
2013-02-14 02:52:00,36.0,24.0,30.13,WNW,302,0.0,0.0,61,0.00,,,0.00,,2013-02-14 10:52:00,
2013-02-14 03:01:00,36.0,24.0,30.13,WNW,302,0.0,0.0,61,0.00,,,0.00,,2013-02-14 11:01:00,
2013-02-14 03:11:00,36.0,23.0,30.12,WNW,302,0.0,0.0,60,0.00,,,0.00,,2013-02-14 11:11:00,
2013-02-14 03:21:00,36.0,23.0,30.12,WNW,302,0.0,0.0,60,0.00,,,0.00,,2013-02-14 11:21:00,
2013-02-14 03:31:00,36.0,23.0,30.12,WNW,302,0.0,0.0,60,0.00,,,0.00,,2013-02-14 11:31:00,
2013-02-14 03:41:00,36.0,23.0,30.12,WNW,302,0.0,0.0,60,0.00,,,0.00,,2013-02-14 11:41:00,
2013-02-14 03:52:00,36.0,24.0,30.12,WNW,302,0.0,0.0,61,0.00,,,0.00,,2013-02-14 11:52:00,
2013-02-14 04:01:00,36.0,24.0,30.12,WNW,302,0.0,0.0,62,0.00,,,0.00,,2013-02-14 12:01:00,
2013-02-14 04:11:00,36.0,24.0,30.12,WNW,302,0.0,0.0,62,0.00,,,0.00,,2013-02-14 12:11:00,
2013-02-14 04:21:00,35.0,23.0,30.13,WNW,302,0.0,0.0,62,0.00,,,0.00,,2013-02-14 12:21:00,
2013-02-14 04:31:00,36.0,24.0,30.13,WNW,302,0.0,0.0,62,0.00,,,0.00,,2013-02-14 12:31:00,
2013-02-14 04:41:00,35.0,23.0,30.13,WNW,302,0.0,0.0,62,0.00,,,0.00,,2013-02-14 12:41:00,
2013-02-14 04:53:00,35.0,23.0,30.13,WNW,302,0.0,0.0,62,0.00,,,0.00,,2013-02-14 12:53:00,
2013-02-14 05:01:00,35.0,23.0,30.14,WNW,302,0.0,0.0,62,0.00,,,0.00,,2013-02-14 13:01:00,
2013-02-14 05:11:00,35.0,24.0,30.14,WNW,302,0.0,0.0,63,0.00,,,0.00,,2013-02-14 13:11:00,
2013-02-14 05:21:00,35.0,24.0,30.14,WNW,302,0.0,0.0,63,0.00,,,0.00,,2013-02-14 13:21:00,
2013-02-14 05:31:00,35.0,23.0,30.14,WNW,302,0.0,0.0,62,0.00,,,0.00,,2013-02-14 13:31:00,
2013-02-14 05:41:00,35.0,23.0,30.14,WNW,302,0.0,0.0,61,0.00,,,0.00,,2013-02-14 13:41:00,
2013-02-14 05:51:00,35.0,23.0,30.14,WNW,302,0.0,0.0,61,0.00,,,0.00,,2013-02-14 13:51:00,
2013-02-14 06:01:00,35.0,23.0,30.14,WNW,302,0.0,0.0,61,0.00,,,0.00,,2013-02-14 14:01:00,
2013-02-14 06:11:00,35.0,23.0,30.15,WNW,302,0.0,0.0,61,0.00,,,0.00,,2013-02-14 14:11:00,
2013-02-14 06:21:00,35.0,23.0,30.15,WNW,302,0.0,0.0,61,0.00,,,0.00,,2013-02-14 14:21:00,
2013-02-14 06:31:00,35.0,23.0,30.15,WNW,302,0.0,0.0,62,0.00,,,0.00,,2013-02-14 14:31:00,
2013-02-14 06:41:00,35.0,23.0,30.15,WNW,302,0.0,0.0,62,0.00,,,0.00,,2013-02-14 14:41:00,
2013-02-14 06:52:00,35.0,23.0,30.15,WNW,302,0.0,0.0,61,0.00,,,0.00,,2013-02-14 14:52:00,
2013-02-14 07:01:00,35.0,23.0,30.15,NNW,329,6.0,6.0,61,0.00,,,0.00,,2013-02-14 15:01:00,
2013-02-14 07:11:00,35.0,23.0,30.15,NNW,328,5.0,5.0,61,0.00,,,0.00,,2013-02-14 15:11:00,
2013-02-14 07:21:00,35.0,23.0,30.15,NNW,328,5.0,5.0,61,0.00,,,0.00,,2013-02-14 15:21:00,
2013-02-14 07:31:00,37.0,24.0,30.16,NNW,339,7.0,7.0,60,0.00,,,0.00,,2013-02-14 15:31:00,
2013-02-14 07:41:00,37.0,24.0,30.16,NNW,339,7.0,7.0,60,0.00,,,0.00,,2013-02-14 15:41:00,
2013-02-14 07:52:00,40.0,26.0,30.16,North,353,6.0,6.0,56,0.00,,,0.00,,2013-02-14 15:52:00,
2013-02-14 08:01:00,42.0,26.0,30.17,NNW,340,4.0,4.0,53,0.00,,,0.00,,2013-02-14 16:01:00,
2013-02-14 08:11:00,44.0,27.0,30.18,NNW,336,5.0,5.0,50,0.00,,,0.00,,2013-02-14 16:11:00,
2013-02-14 08:21:00,44.0,27.0,30.18,NNW,336,5.0,5.0,50,0.00,,,0.00,,2013-02-14 16:21:00,
2013-02-14 08:31:00,46.0,27.0,30.18,NNW,339,7.0,7.0,47,0.00,,,0.00,,2013-02-14 16:31:00,
2013-02-14 08:41:00,46.0,27.0,30.18,NNW,339,7.0,7.0,47,0.00,,,0.00,,2013-02-14 16:41:00,
2013-02-14 08:51:00,48.0,27.0,30.18,North,1,8.0,8.0,43,0.00,,,0.00,,2013-02-14 16:51:00,
2013-02-14 09:01:00,50.0,27.0,30.18,North,350,8.0,8.0,40,0.00,,,0.00,,2013-02-14 17:01:00,
2013-02-14 09:11:00,52.0,28.0,30.19,North,349,8.0,10.0,40,0.00,,,0.00,,2013-02-14 17:11:00,
2013-02-14 09:21:00,52.0,28.0,30.19,North,349,8.0,10.0,40,0.00,,,0.00,,2013-02-14 17:21:00,
2013-02-14 09:31:00,53.0,29.0,30.19,North,357,11.0,11.0,39,0.00,,,0.00,,2013-02-14 17:31:00,
2013-02-14 09:41:00,53.0,29.0,30.19,North,357,11.0,11.0,39,0.00,,,0.00,,2013-02-14 17:41:00,
2013-02-14 09:52:00,54.0,29.0,30.19,North,4,11.0,14.0,38,0.00,,,0.00,,2013-02-14 17:52:00,
2013-02-14 10:01:00,55.0,30.0,30.21,North,4,11.0,11.0,38,0.00,,,0.00,,2013-02-14 18:01:00,
2013-02-14 10:11:00,55.0,30.0,30.21,North,4,11.0,11.0,38,0.00,,,0.00,,2013-02-14 18:11:00,
2013-02-14 10:22:00,56.0,30.0,30.20,NNE,15,10.0,10.0,37,0.00,,,0.00,,2013-02-14 18:22:00,
2013-02-14 10:31:00,56.0,29.0,30.21,North,6,10.0,10.0,36,0.00,,,0.00,,2013-02-14 18:31:00,
2013-02-14 10:41:00,56.0,29.0,30.21,North,6,10.0,10.0,36,0.00,,,0.00,,2013-02-14 18:41:00,
2013-02-14 10:52:00,57.0,30.0,30.21,NNE,17,13.0,13.0,36,0.00,,,0.00,,2013-02-14 18:52:00,
2013-02-14 11:01:00,58.0,31.0,30.22,NE,42,13.0,13.0,35,0.00,,,0.00,,2013-02-14 19:01:00,
2013-02-14 11:11:00,58.0,31.0,30.20,North,3,15.0,15.0,35,0.00,,,0.00,,2013-02-14 19:11:00,
2013-02-14 11:21:00,58.0,31.0,30.20,North,3,15.0,15.0,35,0.00,,,0.00,,2013-02-14 19:21:00,
2013-02-14 11:31:00,59.0,31.0,30.20,North,1,11.0,11.0,35,0.00,,,0.00,,2013-02-14 19:31:00,
2013-02-14 11:41:00,59.0,31.0,30.20,North,1,11.0,11.0,35,0.00,,,0.00,,2013-02-14 19:41:00,
2013-02-14 11:52:00,59.0,30.0,30.19,NNE,17,11.0,11.0,33,0.00,,,0.00,,2013-02-14 19:52:00,
2013-02-14 12:01:00,59.0,30.0,30.19,North,1,10.0,14.0,33,0.00,,,0.00,,2013-02-14 20:01:00,
2013-02-14 12:11:00,59.0,30.0,30.18,NNE,14,11.0,11.0,33,0.00,,,0.00,,2013-02-14 20:11:00,
2013-02-14 12:21:00,59.0,30.0,30.18,NNE,14,11.0,11.0,33,0.00,,,0.00,,2013-02-14 20:21:00,
2013-02-14 12:31:00,60.0,31.0,30.17,North,6,12.0,12.0,33,0.00,,,0.00,,2013-02-14 20:31:00,
2013-02-14 12:41:00,60.0,31.0,30.17,North,6,12.0,12.0,33,0.00,,,0.00,,2013-02-14 20:41:00,
2013-02-14 12:52:00,60.0,30.0,30.16,NNE,32,10.0,10.0,32,0.00,,,0.00,,2013-02-14 20:52:00,
2013-02-14 13:01:00,61.0,30.0,30.15,North,10,12.0,17.0,31,0.00,,,0.00,,2013-02-14 21:01:00,
2013-02-14 13:11:00,61.0,30.0,30.15,North,10,12.0,17.0,31,0.00,,,0.00,,2013-02-14 21:11:00,
2013-02-14 13:21:00,61.0,29.0,30.15,NNE,17,13.0,13.0,30,0.00,,,0.00,,2013-02-14 21:21:00,
2013-02-14 13:31:00,61.0,29.0,30.14,NNE,13,9.0,13.0,29,0.00,,,0.00,,2013-02-14 21:31:00,
2013-02-14 13:41:00,61.0,29.0,30.14,NNE,13,9.0,13.0,29,0.00,,,0.00,,2013-02-14 21:41:00,
2013-02-14 13:51:00,61.0,29.0,30.13,North,353,13.0,13.0,30,0.00,,,0.00,,2013-02-14 21:51:00,
2013-02-14 14:01:00,61.0,29.0,30.13,NNE,20,10.0,10.0,29,0.00,,,0.00,,2013-02-14 22:01:00,
2013-02-14 14:11:00,61.0,29.0,30.13,North,352,11.0,14.0,30,0.00,,,0.00,,2013-02-14 22:11:00,
2013-02-14 14:21:00,61.0,29.0,30.13,North,352,11.0,14.0,30,0.00,,,0.00,,2013-02-14 22:21:00,
2013-02-14 14:31:00,61.0,29.0,30.13,North,359,13.0,19.0,29,0.00,,,0.00,,2013-02-14 22:31:00,
2013-02-14 14:41:00,61.0,29.0,30.13,North,359,13.0,19.0,29,0.00,,,0.00,,2013-02-14 22:41:00,
2013-02-14 14:51:00,61.0,29.0,30.12,NNW,347,13.0,16.0,30,0.00,,,0.00,,2013-02-14 22:51:00,
2013-02-14 15:01:00,61.0,29.0,30.12,NNE,15,12.0,12.0,29,0.00,,,0.00,,2013-02-14 23:01:00,
2013-02-14 15:11:00,61.0,29.0,30.12,NNE,15,12.0,12.0,29,0.00,,,0.00,,2013-02-14 23:11:00,
2013-02-14 15:21:00,60.0,28.0,30.13,North,3,16.0,16.0,29,0.00,,,0.00,,2013-02-14 23:21:00,
2013-02-14 15:31:00,60.0,28.0,30.12,NNE,24,8.0,9.0,29,0.00,,,0.00,,2013-02-14 23:31:00,
2013-02-14 15:41:00,60.0,28.0,30.12,NNE,24,8.0,9.0,29,0.00,,,0.00,,2013-02-14 23:41:00,
2013-02-14 15:52:00,60.0,27.0,30.12,North,11,11.0,11.0,28,0.00,,,0.00,,2013-02-14 23:52:00,
2013-02-14 16:01:00,60.0,28.0,30.13,North,11,12.0,14.0,29,0.00,,,0.00,,2013-02-15 00:01:00,
2013-02-14 16:11:00,60.0,28.0,30.13,North,11,12.0,14.0,29,0.00,,,0.00,,2013-02-15 00:11:00,
2013-02-14 16:21:00,59.0,27.0,30.13,North,7,12.0,12.0,29,0.00,,,0.00,,2013-02-15 00:21:00,
2013-02-14 16:31:00,59.0,28.0,30.13,North,359,9.0,9.0,30,0.00,,,0.00,,2013-02-15 00:31:00,
2013-02-14 16:41:00,59.0,28.0,30.13,North,359,9.0,9.0,30,0.00,,,0.00,,2013-02-15 00:41:00,
2013-02-14 16:52:00,58.0,27.0,30.12,NNE,13,15.0,15.0,30,0.00,,,0.00,,2013-02-15 00:52:00,
2013-02-14 17:01:00,57.0,26.0,30.12,North,3,11.0,13.0,30,0.00,,,0.00,,2013-02-15 01:01:00,
2013-02-14 17:11:00,57.0,26.0,30.12,North,3,11.0,13.0,30,0.00,,,0.00,,2013-02-15 01:11:00,
2013-02-14 17:21:00,56.0,27.0,30.12,North,6,10.0,11.0,32,0.00,,,0.00,,2013-02-15 01:21:00,
2013-02-14 17:31:00,55.0,26.0,30.12,North,11,7.0,7.0,33,0.00,,,0.00,,2013-02-15 01:31:00,
2013-02-14 17:41:00,55.0,26.0,30.12,North,11,7.0,7.0,33,0.00,,,0.00,,2013-02-15 01:41:00,
2013-02-14 17:51:00,54.0,26.0,30.12,NE,55,7.0,7.0,34,0.00,,,0.00,,2013-02-15 01:51:00,
2013-02-14 18:01:00,53.0,27.0,30.13,NNE,24,6.0,7.0,36,0.00,,,0.00,,2013-02-15 02:01:00,
2013-02-14 18:11:00,52.0,27.0,30.14,North,7,6.0,8.0,37,0.00,,,0.00,,2013-02-15 02:11:00,
2013-02-14 18:21:00,52.0,27.0,30.14,North,7,6.0,8.0,37,0.00,,,0.00,,2013-02-15 02:21:00,
2013-02-14 18:31:00,51.0,27.0,30.15,NE,38,6.0,6.0,39,0.00,,,0.00,,2013-02-15 02:31:00,
2013-02-14 18:41:00,51.0,27.0,30.15,NE,38,6.0,6.0,39,0.00,,,0.00,,2013-02-15 02:41:00,
2013-02-14 18:52:00,51.0,28.0,30.15,NNE,14,8.0,8.0,40,0.00,,,0.00,,2013-02-15 02:52:00,
2013-02-14 19:01:00,50.0,27.0,30.15,NNE,21,5.0,5.0,41,0.00,,,0.00,,2013-02-15 03:01:00,
2013-02-14 19:11:00,49.0,27.0,30.17,North,10,0.0,0.0,42,0.00,,,0.00,,2013-02-15 03:11:00,
2013-02-14 19:21:00,49.0,27.0,30.17,North,10,0.0,0.0,42,0.00,,,0.00,,2013-02-15 03:21:00,
2013-02-14 19:31:00,47.0,27.0,30.17,North,10,0.0,0.0,45,0.00,,,0.00,,2013-02-15 03:31:00,
2013-02-14 19:41:00,47.0,27.0,30.17,North,10,0.0,0.0,45,0.00,,,0.00,,2013-02-15 03:41:00,
2013-02-14 19:52:00,46.0,26.0,30.17,NNE,18,0.0,0.0,46,0.00,,,0.00,,2013-02-15 03:52:00,
2013-02-14 20:01:00,46.0,27.0,30.17,North,10,1.0,0.0,47,0.00,,,0.00,,2013-02-15 04:01:00,
2013-02-14 20:11:00,45.0,27.0,30.18,North,6,0.0,0.0,49,0.00,,,0.00,,2013-02-15 04:11:00,
2013-02-14 20:21:00,45.0,27.0,30.18,North,6,0.0,0.0,49,0.00,,,0.00,,2013-02-15 04:21:00,
2013-02-14 20:31:00,44.0,27.0,30.18,ENE,66,0.0,3.0,50,0.00,,,0.00,,2013-02-15 04:31:00,
2013-02-14 20:41:00,44.0,27.0,30.18,ENE,66,0.0,3.0,50,0.00,,,0.00,,2013-02-15 04:41:00,
2013-02-14 20:52:00,44.0,27.0,30.18,ENE,66,0.0,0.0,50,0.00,,,0.00,,2013-02-15 04:52:00,
2013-02-14 21:01:00,43.0,27.0,30.18,ENE,66,0.0,0.0,52,0.00,,,0.00,,2013-02-15 05:01:00,
2013-02-14 21:11:00,43.0,27.0,30.18,ENE,66,0.0,0.0,52,0.00,,,0.00,,2013-02-15 05:11:00,
2013-02-14 21:22:00,42.0,26.0,30.19,NNW,346,0.0,0.0,53,0.00,,,0.00,,2013-02-15 05:22:00,
2013-02-14 21:32:00,42.0,26.0,30.20,NNW,346,0.0,0.0,53,0.00,,,0.00,,2013-02-15 05:32:00,
2013-02-14 21:41:00,42.0,26.0,30.20,NNW,346,0.0,0.0,53,0.00,,,0.00,,2013-02-15 05:41:00,
2013-02-14 21:52:00,41.0,26.0,30.20,WNW,300,5.0,5.0,55,0.00,,,0.00,,2013-02-15 05:52:00,
2013-02-14 22:01:00,41.0,27.0,30.20,WNW,297,6.0,6.0,57,0.00,,,0.00,,2013-02-15 06:01:00,
2013-02-14 22:11:00,40.0,26.0,30.20,WNW,288,5.0,5.0,58,0.00,,,0.00,,2013-02-15 06:11:00,
2013-02-14 22:21:00,40.0,26.0,30.20,WNW,288,5.0,5.0,58,0.00,,,0.00,,2013-02-15 06:21:00,
2013-02-14 22:31:00,40.0,27.0,30.20,NW,307,5.0,5.0,59,0.00,,,0.00,,2013-02-15 06:31:00,
2013-02-14 22:41:00,40.0,27.0,30.20,NW,307,5.0,5.0,59,0.00,,,0.00,,2013-02-15 06:41:00,
2013-02-14 22:52:00,40.0,27.0,30.20,WNW,285,0.0,0.0,59,0.00,,,0.00,,2013-02-15 06:52:00,
2013-02-14 23:01:00,40.0,27.0,30.20,WNW,285,0.0,0.0,60,0.00,,,0.00,,2013-02-15 07:01:00,
2013-02-14 23:11:00,40.0,27.0,30.20,WNW,285,0.0,0.0,60,0.00,,,0.00,,2013-02-15 07:11:00,
2013-02-14 23:21:00,40.0,27.0,30.20,NNW,342,7.0,7.0,60,0.00,,,0.00,,2013-02-15 07:21:00,
2013-02-14 23:31:00,41.0,28.0,30.21,NNW,335,5.0,5.0,60,0.00,,,0.00,,2013-02-15 07:31:00,
2013-02-14 23:41:00,41.0,28.0,30.21,NNW,335,5.0,5.0,60,0.00,,,0.00,,2013-02-15 07:41:00,
2013-02-14 23:52:00,41.0,28.0,30.21,NNW,338,5.0,5.0,59,0.00,,,0.00,,2013-02-15 07:52:00,